Date String (YYYY-MM-DD hh:mm:ss) UTC,Instrument flags,absolute air pressure of the measurement (hPa),sample flow rate (lpm),inlet stack bypass flow (lpm),air temperature of the measurement (°C),ambient temperature measured by the external sensor (°C),aerosol sample conditioner tube jacket temperature (°C),OPC LED temperature (°C),internal box temperature (°C),relative humidity of the measurement (%),span deviation,mass concentration of particles derived from Lorenz-Mie calculation of OPC scattering (μg/m³),mass concentration of particles derived from Lorenz-Mie calculation of OPC scattering (μg/m³),mass concentration of particles derived from Lorenz-Mie calculation of OPC scattering (μg/m³)
DateTimeUTC,F1_M11,P_M11,Q1_M11,Q2_M11,T1_M11,T2_M11,T3_M11,T4_M11,T5_M11,U1_M11,ZSPAN_M11,X0_M11,X2_M11,X1_M11
2024-03-29 22:00:00,SystemResetWarning,0823.9,5.00,000.00,020.8,020.2,000.0,029.3,022.6,27.3,0000.0,0008.66,0004.74,0004.25
2024-03-29 22:01:00,SystemResetWarning,0823.9,5.01,000.00,020.8,020.2,000.0,029.3,022.6,27.4,0000.0,0008.31,0004.71,0004.23
2024-03-29 22:02:00,SystemResetWarning,0823.9,5.00,000.00,020.8,020.2,000.0,029.3,022.6,28.1,0000.0,0008.26,0004.71,0004.22
2024-03-29 22:03:00,SystemResetWarning,0824.0,5.00,000.00,020.8,020.2,000.0,029.3,022.6,28.3,0000.0,0008.14,0004.71,0004.20
2024-03-29 22:04:00,SystemResetWarning,0824.0,5.00,000.00,020.8,020.2,000.0,029.3,022.6,28.4,0000.0,0008.00,0004.67,0004.19
2024-03-29 22:05:00,SystemResetWarning,0824.0,5.00,000.00,020.8,020.2,000.0,029.3,022.6,28.4,0000.0,0007.90,0004.65,0004.17
2024-03-29 22:06:00,SystemResetWarning,0824.0,5.00,000.00,020.8,020.2,000.0,029.3,022.6,28.0,0000.0,0008.06,0004.68,0004.18
2024-03-29 22:07:00,SystemResetWarning,0824.0,5.00,000.00,020.8,020.2,000.0,029.3,022.6,27.5,0000.0,0008.04,0004.67,0004.17
2024-03-29 22:08:00,SystemResetWarning,0824.0,4.99,000.00,020.8,020.2,000.0,029.3,022.6,27.2,0000.0,0007.86,0004.66,0004.18
2024-03-29 22:09:00,SystemResetWarning,0824.0,5.00,000.00,020.8,020.2,000.0,029.3,022.6,27.1,0000.0,0007.96,0004.69,0004.18
2024-03-29 22:10:00,SystemResetWarning,0823.9,5.00,000.00,020.8,020.2,000.0,029.3,022.6,27.3,0000.0,0008.00,0004.71,0004.19
2024-03-29 22:11:00,SystemResetWarning,0823.9,5.00,000.00,020.8,020.2,000.0,029.3,022.7,27.1,0000.0,0008.04,0004.73,0004.20
2024-03-29 22:12:00,SystemResetWarning,0823.9,5.00,000.00,020.8,020.2,000.0,029.3,022.6,27.0,0000.0,0008.05,0004.76,0004.21
2024-03-29 22:13:00,SystemResetWarning,0823.9,4.99,000.00,020.8,020.3,000.0,029.3,022.6,27.1,0000.0,0008.09,0004.76,0004.22
2024-03-29 22:14:00,SystemResetWarning,0823.9,4.99,000.00,020.8,020.3,000.0,029.3,022.7,27.4,0000.0,0007.96,0004.71,0004.22
2024-03-29 22:15:00,SystemResetWarning,0823.8,5.01,000.00,020.8,020.3,000.0,029.3,022.7,28.2,0000.0,0007.99,0004.72,0004.23
2024-03-29 22:16:00,SystemResetWarning,0823.8,5.00,000.00,020.8,020.3,000.0,029.3,022.7,28.5,0000.0,0008.70,0004.77,0004.25
2024-03-29 22:17:00,SystemResetWarning,0823.8,5.00,000.00,020.8,020.3,000.0,029.3,022.7,28.3,0000.0,0008.84,0004.77,0004.25
2024-03-29 22:18:00,SystemResetWarning,0823.8,5.01,000.00,020.8,020.3,000.0,029.3,022.7,27.9,0000.0,0009.42,0004.75,0004.26
2024-03-29 22:19:00,SystemResetWarning,0823.8,5.00,000.00,020.9,020.3,000.0,029.3,022.7,28.1,0000.0,0009.47,0004.75,0004.26
2024-03-29 22:20:00,SystemResetWarning,0823.8,5.00,000.00,020.9,020.3,000.0,029.3,022.7,27.4,0000.0,0009.31,0004.73,0004.26
2024-03-29 22:21:00,SystemResetWarning,0823.8,5.00,000.00,020.9,020.3,000.0,029.3,022.7,27.8,0000.0,0009.20,0004.69,0004.25
2024-03-29 22:22:00,SystemResetWarning,0823.8,5.00,000.00,020.9,020.3,000.0,029.4,022.7,28.7,0000.0,0009.41,0004.68,0004.25
2024-03-29 22:23:00,SystemResetWarning,0823.8,4.99,000.00,020.9,020.3,000.0,029.4,022.7,28.2,0000.0,0009.42,0004.67,0004.24
2024-03-29 22:24:00,SystemResetWarning,0823.8,5.00,000.00,020.9,020.3,000.0,029.4,022.7,28.2,0000.0,0009.40,0004.66,0004.23
2024-03-29 22:25:00,SystemResetWarning,0823.8,5.00,000.00,020.9,020.3,000.0,029.4,022.7,27.7,0000.0,0009.42,0004.68,0004.22
2024-03-29 22:26:00,SystemResetWarning,0823.8,4.99,000.00,020.9,020.3,000.0,029.4,022.7,28.7,0000.0,0009.57,0004.69,0004.22
2024-03-29 22:27:00,SystemResetWarning,0823.8,5.00,000.00,020.9,020.3,000.0,029.4,022.7,29.2,0000.0,0009.72,0004.66,0004.21
2024-03-29 22:28:00,SystemResetWarning,0823.8,5.00,000.00,020.9,020.3,000.0,029.4,022.7,29.6,0000.0,0009.85,0004.69,0004.22
2024-03-29 22:29:00,SystemResetWarning,0823.8,5.00,000.00,020.9,020.3,000.0,029.4,022.7,30.6,0000.0,0009.52,0004.73,0004.22
2024-03-29 22:30:00,SystemResetWarning,0823.9,5.00,000.00,020.9,020.3,000.0,029.4,022.7,30.4,0000.0,0009.12,0004.73,0004.24
2024-03-29 22:31:00,SystemResetWarning,0823.9,5.00,000.00,020.9,020.3,000.0,029.4,022.7,29.4,0000.0,0009.15,0004.74,0004.25
2024-03-29 22:32:00,SystemResetWarning,0824.0,5.00,000.00,020.9,020.3,000.0,029.4,022.7,28.9,0000.0,0009.21,0004.77,0004.25
2024-03-29 22:33:00,SystemResetWarning,0824.0,5.00,000.00,020.9,020.3,000.0,029.4,022.7,28.6,0000.0,0009.03,0004.77,0004.25
2024-03-29 22:34:00,SystemResetWarning,0823.9,5.00,000.00,020.9,020.3,000.0,029.4,022.7,28.3,0000.0,0008.98,0004.78,0004.25
2024-03-29 22:35:00,SystemResetWarning,0823.8,5.00,000.00,020.9,020.3,000.0,029.4,022.7,28.3,0000.0,0009.03,0004.79,0004.26
2024-03-29 22:36:00,SystemResetWarning,0823.8,5.00,000.00,020.9,020.3,000.0,029.4,022.7,28.4,0000.0,0009.10,0004.79,0004.26
2024-03-29 22:37:00,SystemResetWarning,0823.8,5.00,000.00,020.9,020.3,000.0,029.4,022.7,29.5,0000.0,0009.95,0004.79,0004.27
2024-03-29 22:38:00,SystemResetWarning,0823.8,5.00,000.00,020.9,020.3,000.0,029.4,022.7,29.5,0000.0,0009.63,0004.82,0004.27
2024-03-29 22:39:00,SystemResetWarning,0823.8,5.00,000.00,020.9,020.3,000.0,029.4,022.7,29.6,0000.0,0009.06,0004.79,0004.26
2024-03-29 22:40:00,SystemResetWarning,0823.8,5.00,000.00,020.9,020.3,000.0,029.4,022.7,29.3,0000.0,0008.84,0004.75,0004.26
2024-03-29 22:41:00,SystemResetWarning,0823.8,5.00,000.00,020.9,020.3,000.0,029.4,022.7,29.7,0000.0,0008.84,0004.74,0004.25
2024-03-29 22:42:00,SystemResetWarning,0823.8,5.00,000.00,020.9,020.3,000.0,029.4,022.7,29.2,0000.0,0009.03,0004.77,0004.25
2024-03-29 22:43:00,SystemResetWarning,0823.8,5.00,000.00,020.9,020.3,000.0,029.4,022.7,29.0,0000.0,0009.48,0004.81,0004.26
2024-03-29 22:44:00,SystemResetWarning,0823.8,4.99,000.00,020.9,020.3,000.0,029.4,022.7,28.4,0000.0,0009.74,0004.83,0004.26
2024-03-29 22:45:00,SystemResetWarning,0823.8,5.00,000.00,020.9,020.3,000.0,029.4,022.7,28.4,0000.0,0010.49,0004.83,0004.26
2024-03-29 22:46:00,SystemResetWarning,0823.8,5.00,000.00,020.9,020.3,000.0,029.4,022.7,28.3,0000.0,0010.63,0004.79,0004.25
2024-03-29 22:47:00,SystemResetWarning,0823.9,5.00,000.00,020.9,020.3,000.0,029.4,022.7,28.0,0000.0,0010.59,0004.79,0004.26
2024-03-29 22:48:00,SystemResetWarning,0823.9,5.00,000.00,020.9,020.3,000.0,029.4,022.8,28.5,0000.0,0009.68,0004.82,0004.27
2024-03-29 22:49:00,SystemResetWarning,0824.0,5.00,000.00,020.9,020.3,000.0,029.4,022.8,28.5,0000.0,0010.22,0004.80,0004.27
2024-03-29 22:50:00,SystemResetWarning,0824.0,5.00,000.00,020.9,020.3,000.0,029.4,022.8,28.3,0000.0,0010.47,0004.77,0004.27
2024-03-29 22:51:00,SystemResetWarning,0824.0,5.00,000.00,020.9,020.3,000.0,029.4,022.8,28.2,0000.0,0010.52,0004.78,0004.27
2024-03-29 22:52:00,SystemResetWarning,0824.0,5.00,000.00,021.0,020.3,000.0,029.4,022.8,27.7,0000.0,0010.55,0004.78,0004.26
2024-03-29 22:53:00,SystemResetWarning,0823.9,5.00,000.00,021.0,020.4,000.0,029.4,022.8,27.5,0000.0,0010.50,0004.75,0004.26
2024-03-29 22:54:00,SystemResetWarning,0824.0,5.00,000.00,021.0,020.4,000.0,029.4,022.8,27.5,0000.0,0010.46,0004.70,0004.26
2024-03-29 22:55:00,SystemResetWarning,0824.0,5.00,000.00,021.0,020.4,000.0,029.4,022.8,27.4,0000.0,0010.39,0004.71,0004.26
2024-03-29 22:56:00,SystemResetWarning,0823.9,5.00,000.00,021.0,020.4,000.0,029.5,022.8,27.2,0000.0,0009.77,0004.74,0004.29
2024-03-29 22:57:00,SystemResetWarning,0823.9,5.00,000.00,021.0,020.4,000.0,029.5,022.8,27.2,0000.0,0009.67,0004.78,0004.30
2024-03-29 22:58:00,SystemResetWarning,0823.9,5.01,000.00,021.0,020.4,000.0,029.5,022.8,27.4,0000.0,0009.69,0004.80,0004.30
2024-03-29 22:59:00,SystemResetWarning,0823.9,5.00,000.00,021.0,020.4,000.0,029.5,022.8,27.3,0000.0,0009.62,0004.78,0004.29
